Regional Weather Roundup
Issued by NWS

Home | Current Version | Previous Version | Graphics & Text | Print | Product List | Glossary Off
Versions: 1 2 3 4 5 6 7 8 9 10 11 12 13 14 15 16 17 18 19 20 21 22 23 24 25 26 27 28 29 30 31 32 33 34 35 36 37 38 39 40 41 42 43 44 45 46 47 48 49 50

000
ASUS43 KMKX 201621
RWRWI

WISCONSIN REGIONAL WEATHER ROUNDUP
NATIONAL WEATHER SERVICE MILWAUKEE/SULLIVAN WI
1000 AM CST MON FEB 20 2017

NOTE: "FAIR" INDICATES FEW OR NO CLOUDS BELOW 12,000 FEET WITH NO
SIGNIFICANT WEATHER AND/OR OBSTRUCTIONS TO VISIBILITY.

WIZ001-002-006>008-014>016-023>028-201700-
NORTHWEST WISCONSIN

CITY           SKY/WX    TMP DP  RH WIND       PRES   REMARKS
SUPERIOR ARPT  CLOUDY    37  35  90 NE12G17   29.87F WCI  30
ASHLAND        CLOUDY    50  38  63 VRB5      29.89F
HAYWARD        CLOUDY    48  39  71 S10G20    29.90S
SIREN          CLOUDY    47  38  71 SE14G21   29.85S
CUMBERLAND     PTSUNNY   43  36  75 SE10      29.88S
RICE LAKE      PTSUNNY   46  39  77 SE13G18   29.90F
CHETEK         PTSUNNY   45  39  80 E8G16     29.91S
LADYSMITH      CLOUDY    47  40  77 SE6       29.94F
EAU CLAIRE     CLOUDY    47  40  76 SE10      29.91R
MENOMONIE      CLOUDY    46  40  80 E8        29.88F
NEW RICHMOND   CLOUDY    47  40  77 SE8       29.83S
OSCEOLA        CLOUDY    49  43  78 SE13G20   29.85S
$$

WIZ003>005-009-010-017-018-201700-
NORTH CENTRAL WISCONSIN

CITY           SKY/WX    TMP DP  RH WIND       PRES   REMARKS
MANITOWISH WTR PTSUNNY   44  35  71 SE13G20   29.97F
ARBOR VITAE    CLOUDY    44  35  69 SE10      29.99F
WOODRUFF       CLOUDY    44  35  69 SE10      29.99F
RHINELANDER    CLOUDY    42  33  70 SE9       30.02F
EAGLE RIVER    CLOUDY    42  30  62 SE8       30.02F
LAND O LAKES   CLOUDY    44  32  63 SE9       30.03F
PHILLIPS       CLOUDY    44  36  74 SE12      29.95S
TOMAHAWK       CLOUDY    43  33  68 SE6       30.01F
MEDFORD        CLOUDY    42  34  73 SE12G20   29.96F
MERRILL        NOT AVBL
$$

WIZ029-030-035-036-043>047-201700-
CENTRAL WISCONSIN

CITY           SKY/WX    TMP DP  RH WIND       PRES   REMARKS
WAUSAU         CLOUDY    41  33  73 E12       30.00F
MOSINEE        CLOUDY    43  36  75 SE12G18   30.01F
MARSHFIELD     CLOUDY    43  36  76 SE13      29.97F
STEVENS POINT  CLOUDY    41  33  74 E8        30.02F
WAUPACA        CLOUDY    51  40  64 E12       30.05F
WAUTOMA        NOT AVBL
WISC RAPIDS    PTSUNNY   49  42  77 SE10      30.01S
CAMP DOUGLAS   PTSUNNY   50  43  77 E10       29.97S
$$

WIZ011>013-019>022-031-037>040-048>050-201700-
NORTHEAST WISCONSIN

CITY           SKY/WX    TMP DP  RH WIND       PRES   REMARKS
ANTIGO         CLOUDY    38  32  78 SE15      30.05F WCI  30
SHAWANO        CLOUDY    42  34  72 NE6       30.10S
OCONTO         CLOUDY    44  33  66 SE7       30.13R
STURGEON BAY   MOSUNNY   42  34  73 SE12      30.14F
GREEN BAY      CLOUDY    46  36  68 SE13      30.11S
MANITOWOC      MOSUNNY   40  34  79 MISG      30.14F
APPLETON       PTSUNNY   45  32  61 E10       30.06F
CLINTONVILLE   MOSUNNY   46  32  57 E12       30.07S
OSHKOSH        CLOUDY    50  43  77 SE12      30.04F
$$

WIZ032>034-041-042-053>061-201700-
SOUTHWEST WISCONSIN

CITY           SKY/WX    TMP DP  RH WIND       PRES   REMARKS
LA CROSSE      PTSUNNY   56  48  74 SE9       29.92F
SPARTA         CLOUDY    55  49  81 SE10      29.95F
VIROQUA        CLOUDY    51  48  91 SE17      29.93F
BOSCOBEL       CLOUDY    53  48  83 VRB3      29.97F HAZE
PRAIRIE DU CHI CLOUDY    50  46  87 E7        29.93F FOG
PLATTEVILLE    CLOUDY    50  50 100 SE17      29.97F
$$

WIZ056-057-062-063-064-067-068-201700-
SOUTH CENTRAL WISCONSIN

CITY           SKY/WX    TMP DP  RH WIND       PRES   REMARKS
REEDSBURG      CLOUDY    52  48  87 S8        29.99S
BARABOO/DELLS  CLOUDY    51  45  79 S17       30.00R HAZE
LONE ROCK      CLOUDY    53  47  79 SE12      30.00F HAZE
MINERAL POINT  FOG       50  50 100 SE14      29.99F VSB 3/4
MADISON        CLOUDY    52  47  83 S13       30.03S
MIDDLETON      MOSUNNY   54  48  82 S10       30.03F
WATERTOWN      MOSUNNY   54  47  77 SE12G17   30.05S
MONROE         CLOUDY    50  46  87 SE13      30.03F FOG
JANESVILLE     CLOUDY    55  48  76 SE13      30.05S
$$

WIZ051-052-058>065-066-070>072-201700-
SOUTHEAST WISCONSIN

CITY           SKY/WX    TMP DP  RH WIND       PRES   REMARKS
MILWAUKEE      PTSUNNY   49  40  71 SE9       30.11F
WAUKESHA       MOSUNNY   48  45  87 SE12      30.10S FOG
MILWAUKEE/TIMM SUNNY     50  43  76 SE10      30.10F HAZE
RACINE         CLOUDY    47  41  80 S17       30.13S
KENOSHA        CLOUDY    50  44  80 SE10      30.11F HAZE
FOND DU LAC    CLOUDY    53  43  68 SE20      30.05F
SHEBOYGAN      CLOUDY    44  33  65 SE8       30.13S
WEST BEND      CLOUDY    46  43  87 SE6       30.09S
JUNEAU         MOSUNNY   53  45  73 SE13      30.06S
$$

LSZ147-162-201700-
LAKE SUPERIOR

STATION/POSITION TIME  TEMP    WIND        PRES    WAVE
                       AIR SEA DIR/SP/G            HT/PER
                 (UTC) (F)     (DEG/KT/KT) (MB)    (FT/S)
DEVILS ISLAND    1600   44      80/  6/  7 1013.2F
PORT WING        1540   37      20/  6/  9 1012.2F
SAXON HARBOR     1530   51     160/ 10/ 18 1011.9F
$$

LMZ867-665-643>646-201700-
LAKE MICHIGAN

STATION/POSITION TIME  TEMP    WIND        PRES    WAVE
                       AIR SEA DIR/SP/G            HT/PER
                 (UTC) (F)     (DEG/KT/KT) (MB)    (FT/S)
CHAMBERS ISLAND  1540   44     110/  7/ 10 1020.7F
NORTHPORT PIER   1540   36     140/  9/ 10 1021.7F
SISTER BAY       1520   46     160/ 16/ 20   N/A
ALGOMA LAKESHORE 1525             CALM       N/A
KEWAUNEE LAKESHO 1554   39     170/  1/  4 1019.9F
SHEBOYGAN LAKESH 1600   39     170/  7/  8 1020.9F
PORT WASHINGTON  1540   42     110/  2/  3 1021.0S
MILWAUKEE LAKESH 1600   40      CALM  /  2   N/A
KENOSHA   LAKESH 1600   39     180/  7/  9 1020.0
$$

TC  - TEMPERATURE IN CELSIUS
VSB - VISIBILITY IN STATUTE MILES
WCI - WIND CHILL INDEX
HX  - HEAT INDEX




USA.gov is the U.S. government's official web portal to all federal, state and local government web resources and services.